Location: Barcelona
(41.3830°N, 2.1830°E)
Time: 00:40:26
(UTC+02:00)

ISS - Pass Details

Date: 20 July 2019
Orbit: 409 x 418 km, 51.6° (Epoch: 22 July)

Event Time Altitude Azimuth Distance (km) Brightness Sun altitude
Rises 01:25:37 0° 302° (WNW) 2,351 0.6 -27.4°
Reaches altitude 10° 01:28:28 10° 328° (NNW) 1,486 -0.2 -27.5°
Maximum altitude 01:30:21 14° 3° (N) 1,257 -0.5 -27.5°
Drops below altitude 10° 01:32:14 10° 38° (NE) 1,483 -0.4 -27.6°
Sets 01:35:05 0° 64° (ENE) 2,342 0.3 -27.6°
